Regional Weather Roundup
Issued by NWS

Home | Current Version | Previous Version | Text Only | Print | Product List | Glossary Off
Versions: 1 2 3 4 5 6 7 8 9 10 11 12 13 14 15 16 17 18 19 20 21 22 23 24 25 26 27 28 29 30 31 32 33 34 35 36 37 38 39 40 41 42 43 44 45 46 47 48 49 50

000
ASUS45 KABQ 200701
RWRNM
NEW MEXICO REGIONAL WEATHER ROUNDUP
NATIONAL WEATHER SERVICE ALBUQUERQUE NM
1200 AM MST SAT JAN 20 2018

NOTE: "FAIR" MEANS FEW OR NO CLOUDS BELOW 12,000 FEET AGL WITH NO
       SIGNIFICANT WEATHER OR OBSTRUCTIONS TO VISION.

      THIS PRODUCT IS RELEASED AS TWO VERSIONS.  ONE VERSION NEAR
      THE TOP OF THE HOUR CONTAINING PRELIMINARY DATA FROM ALBUQUERQUE
      AND OTHER STATIONS.  A FINAL VERSION WITH ADDITIONAL DATA IS
      ISSUED ABOUT 10 MINUTES AFTER THE HOUR.

NMZ501-503-504-510>518-200800-
NORTHWEST PLATEAU/NORTHCENTRAL MOUNTAINS

CITY           SKY/WX    TMP DP  RH WIND       PRES   REMARKS
FARMINGTON     FAIR      34  16  47 E12       29.93F WCI  25
LOS ALAMOS     MOCLDY    40  13  32 CALM      30.03F
SANTA FE       FAIR      36  12  37 CALM      30.01F
TAOS           FAIR      24   9  52 N3        30.05F
ANGEL FIRE     FAIR      14   8  77 CALM      30.06F

$$
NMZ402-403-502-505>509-200800-
WESTCENTRAL MOUNTAINS/SOUTHWEST MOUNTAINS

CITY           SKY/WX    TMP DP  RH WIND       PRES   REMARKS
GALLUP         FAIR      35  13  40 SW5       30.01F WCI  31
GRANTS         FAIR      25   6  45 NW3G16    30.04F
SILVER CITY    FAIR      32  12  43 NW9       30.06S WCI  24

$$
NMZ407-409-411-412-200800-
SOUTHERN DESERTS

CITY           SKY/WX    TMP DP  RH WIND       PRES   REMARKS
DEMING         FAIR      34  12  40 S5        30.03S WCI  30
LAS CRUCES     FAIR      37  13  37 CALM      30.03F
HOLLOMAN AFB   FAIR      30   7  38 NE3       30.03F
ALAMOGORDO     FAIR      36   9  32 SW3       30.02F
T OR C         FAIR      38  11  32 SE3       30.00F

$$
NMZ519>523-200800-
CENTRAL VALLEYS/CENTRAL HIGHLANDS

CITY           SKY/WX    TMP DP  RH WIND       PRES   REMARKS
ALBUQUERQUE    FAIR      41  13  31 SE6       30.01F
MORIARTY ARPT  FAIR      21   5  49 N3        30.04S
CLINES CORNERS FAIR      33  10  38 SW15      30.03F WCI  23
BELEN          FAIR      32  10  40 S3        30.01S
SOCORRO        FAIR      37  12  36 SW9       30.01S WCI  30

$$
NMZ524>526-539-540-200800-
SOUTHCENTRAL MOUNTAINS

CITY           SKY/WX    TMP DP  RH WIND       PRES   REMARKS
RUIDOSO        FAIR      43   7  22 W6        30.06F

$$
NMZ527>531-200800-
NORTHEAST HIGHLANDS/NORTHEAST PLAINS

CITY           SKY/WX    TMP DP  RH WIND       PRES   REMARKS
LAS VEGAS      FAIR      41  13  31 NW5       29.97F
RATON          FAIR      28  13  53 NE6       29.91F WCI  22
CLAYTON        FAIR      54  15  21 W15       29.81S

$$
NMZ532>537-200800-
EASTCENTRAL PLAINS

CITY           SKY/WX    TMP DP  RH WIND       PRES   REMARKS
TUCUMCARI      FAIR      50  15  24 W15       29.82S
CANNON AFB     FAIR      42  10  27 W14       29.88F
CLOVIS AIRPORT FAIR      46  11  24 W17       29.86S

$$
NMZ028-029-538-200800-
SOUTHEAST PLAINS

CITY           SKY/WX    TMP DP  RH WIND       PRES   REMARKS
ROSWELL        FAIR      38  15  39 E3        29.90S
ARTESIA        FAIR      46  14  27 CALM      29.91S
CARLSBAD       FAIR      46  15  28 S6        29.89F
HOBBS          FAIR      32   9  37 SW8       29.90S WCI  25


$$




USA.gov is the U.S. government's official web portal to all federal, state and local government web resources and services.